Location: New Plymouth
(39.0670°S, 174.0830°E)
Time: 17:54:42
(UTC+13:00)

DELTA 2 R/B(2) - Pass Details

Date: 24 January 2019
Orbit: 186 x 10410 km, 39.9° (Epoch: 16 February)

Event Time Altitude Azimuth Distance (km) Brightness Sun altitude
Rises 21:00:32 0° 294° (WNW) 3,751 9.7 -3.3°
Reaches altitude 10° 21:04:24 10° 299° (WNW) 1,868 8.0 -4.0°
Maximum altitude 21:07:48 46° 13° (NNE) 426 4.0 -4.5°
Drops below altitude 10° 21:09:33 10° 91° (E) 955 5.5 -4.8°
Enters shadow 21:10:17 - 96° (E) 1,317 6.3 -5.0°
